CZ-6A DEB, 56247

Orbit data source: Space-Track

CZ-6A DEB, 56247 is space debris in SSO originally from a launch on Fri, 11 Nov 2022 UTC launched from the Taiyaun Space Center, China (TSC). Debris objects in space refer to the collection of defunct objects orbiting the Earth. Examples of debris include non-operational satellites, rocket bodies, and fragments generated from explosions, collisions, or faulty payload assembly.

Loading next visibility...
Identifier
56247, 2022-151ABP
Orbit
SSO
Country
Flag of CNCN / PRC
Related business
Manufacturer
SAST
Mission
Spacecraft
Bus & Motor
Unknown
Mass
Unknown
Launch date (UTC)
2022-11-11 (3 years ago)
Launch vehicle
Unknown
Launch site
Taiyaun Space Center, China (TSC)
Object type
Payload
Rocket body
Debris
Shape & HBR
Unknown shape, 0.1 m
Radar Cross Section
Small (<0.1 m²)

Expand to show TLE details & history
Last TLE update: 2 days ago

TLE from 2 days ago
0 CZ-6A DEB
1 56247U 22151ABP 25348.67162053  .00005799  00000-0  87502-3 0  9992
2 56247  98.4573  31.0988 0120850  67.7116 293.6850 14.69862695150662
Epoch: 2025-12-14T16:07Z
TLE epoch observation values (Epoch: 2025-12-14T16:07:08.013Z)
Latitude
-0.0001°
Longitude
65.73424°
Altitude
631.184 km
Speed
7.561 km/s
True Right ascension
02h 04m 23s
True Declination
0° 00' 00"
Sunlit
Object was in full shadow at epoch
Visualization orbit readout
Latitude
Unknown
Longitude
Unknown
Altitude
Unknown
Speed
Unknown
Apparent Right ascension
Unknown
Apparent Declination
Unknown
Sunlit
N/A
Visualization observer readout
Local Sidereal Time
17:37:38
Azimuth
Unknown
Elevation
Unknown
Doppler factor
Unknown
Orbital elements
Apogee altitude
743.625 km
Perigee altitude
573.547 km
Semi-major axis
7,036.723 km
Eccentricity
0.01209
Inclination
98.4573°
RAAN
31.0988°
Arg. of periapsis
67.7116°
True anomaly
292.40917°
Mean anomaly
293.685°
Eccentric anomaly
293.04785°
Mean motion
3.67695 °/min
Orbital period
97.91 mins
BSTAR
0.00087502
Loading maneuver chart data...
Computing Atmospheric mass density...
Loading historical data...
Loading historical data...
Loading historical data...
Loading historical data...
Loading historical data...
Loading historical data...
Loading historical data...

Documentation

Showing up to 5 results
|